Weather History for Clarksburg, WV

Change the Weather History Date:

Monday, October 21, 2013

  Actual Average Record
Temperature  
Mean Temperature 49 °F -  
Max Temperature 66 °F 62 °F 82 °F (1953)
Min Temperature 34 °F 37 °F 16 °F (1952)
Degree Days  
Heating Degree Days 16    
Moisture  
Dew Point 36 °F    
Average Humidity 63    
Maximum Humidity 92    
Minimum Humidity 32    
Precipitation  
Precipitation 0.00 in - - ()
Sea Level Pressure  
Sea Level Pressure 30.01 in    
Wind  
Wind Speed 2 mph (SW)    
Max Wind Speed 14 mph    
Max Gust Speed 17 mph    
Visibility 10 miles    
Events      
Averages and records for this station are not official NWS values.
T = Trace of Precipitation, MM = Missing Value Source: NWS Daily Summary

Daily Weather History Graph

Daily Weather History Graph

Search for Another Location

Airport:

Trip Planner

Search our weather history database for the weather conditions in past years. The results will help you decide how hot, cold, wet, or windy it might be!

Date:

Astronomy

Oct. 21, 2013 Rise Set
Actual Time 7:37 AM EDT 6:33 PM EDT
Civil Twilight 7:09 AM EDT 7:00 PM EDT
Nautical Twilight 6:38 AM EDT 7:31 PM EDT
Astronomical Twilight 6:07 AM EDT 8:02 PM EDT
Moon 8:25 PM EDT (10/21) 10:09 AM EDT (10/21)
Length of Visible Light 11h 50m
Length of Day
10h 56m
Waning Gibbous, 93% of the Moon is Illuminated
Oct 21
Waning Gibbous
Oct 26
Last Quarter
Nov 3
New
Nov 10
First Quarter
Nov 17
Full

Hourly Weather History & Observations

Time (EDT) Temp. Dew Point Humidity Pressure Visibility Wind Dir Wind Speed Gust Speed Precip Events Conditions
12:53 AM 39.9 °F 35.1 °F 83% 30.07 in 10.0 mi Calm Calm - N/A   Clear
1:53 AM 39.0 °F 35.1 °F 86% 30.07 in 10.0 mi Calm Calm - N/A   Clear
2:53 AM 37.0 °F 34.0 °F 89% 30.07 in 10.0 mi Calm Calm - N/A   Clear
3:53 AM 36.0 °F 33.1 °F 89% 30.06 in 10.0 mi Calm Calm - N/A   Clear
4:53 AM 36.0 °F 33.1 °F 89% 30.06 in 10.0 mi Calm Calm - N/A   Clear
5:53 AM 35.1 °F 32.0 °F 89% 30.07 in 10.0 mi Calm Calm - N/A   Clear
6:53 AM 35.1 °F 32.0 °F 89% 30.08 in 10.0 mi Calm Calm - N/A   Clear
7:53 AM 34.0 °F 32.0 °F 92% 30.09 in 9.0 mi Calm Calm - N/A   Clear
8:53 AM 39.0 °F 35.1 °F 86% 30.09 in 10.0 mi Calm Calm - N/A   Clear
9:53 AM 46.9 °F 37.9 °F 71% 30.09 in 10.0 mi Calm Calm - N/A   Clear
10:53 AM 55.9 °F 37.9 °F 51% 30.06 in 10.0 mi SSW 6.9 mph - N/A   Clear
11:53 AM 61.0 °F 39.0 °F 44% 30.04 in 10.0 mi SSW 13.8 mph - N/A   Clear
12:53 PM 63.0 °F 37.9 °F 40% 30.03 in 10.0 mi SW 10.4 mph 16.1 mph N/A   Clear
1:53 PM 64.0 °F 37.0 °F 37% 30.00 in 10.0 mi WSW 4.6 mph 17.3 mph N/A   Clear
2:53 PM 64.9 °F 34.0 °F 32% 29.97 in 10.0 mi West 10.4 mph 16.1 mph N/A   Clear
3:53 PM 64.9 °F 35.1 °F 33% 29.95 in 10.0 mi SW 8.1 mph - N/A   Clear
4:53 PM 64.9 °F 35.1 °F 33% 29.93 in 10.0 mi SSW 9.2 mph - N/A   Clear
5:53 PM 62.1 °F 36.0 °F 38% 29.94 in 10.0 mi SSW 6.9 mph - N/A   Clear
6:53 PM 60.1 °F 35.1 °F 39% 29.94 in 10.0 mi South 4.6 mph - N/A   Clear
7:53 PM 54.0 °F 36.0 °F 51% 29.94 in 10.0 mi Calm Calm - N/A   Clear
8:53 PM 52.0 °F 37.9 °F 59% 29.93 in 10.0 mi Calm Calm - N/A   Clear
9:53 PM 51.1 °F 37.9 °F 61% 29.92 in 10.0 mi Calm Calm - N/A   Overcast
10:53 PM 50.0 °F 39.9 °F 68% 29.90 in 10.0 mi Calm Calm - N/A   Overcast
11:53 PM 51.1 °F 39.0 °F 63% 29.89 in 10.0 mi Calm Calm - N/A   Overcast